User: anonymous   Login
Location: Unspecified
(0.0000°N, 0.0000°E)
Time: 07:45:41
(UTC+00:00)
Language:

NOAA 1 - Orbit

View from above orbital plane
View from above orbital plane
View from above satellite
View from above satellite

Ground track
Ground track

The orbit data is extracted from the following two-line orbital elements,

1  4793U 70106A   18112.80634880 -.00000056 +00000-0 -67579-4 0  9998
2  4793 101.7558 180.8678 0031731 021.9148 084.5393 12.53984505167480
Epoch (UTC): 22 April 2018 19:21:08
Eccentricity: 0.0031731
inclination: 101.7558°
perigee height: 1423 km
apogee height: 1473 km
right ascension of ascending node: 180.8678°
argument of perigee: 21.9148°
revolutions per day: 12.53984505
mean anomaly at epoch: 84.5393°
orbit number at epoch: 16748

The dashed part of the orbit path shows where the satellite is in the earth's shadow,  

DLR